304  
ASUS41 KRLX 271210  
RWRRLX  
WEST VIRGINIA REGIONAL WEATHER ROUNDUP  
NATIONAL WEATHER SERVICE CHARLESTON WV  
800 AM EDT MON MAR 27 2017  
 
NOTE: "FAIR" INDICATES FEW OR NO CLOUDS BELOW 12,000 FEET WITH NO  
SIGNIFICANT WEATHER AND/OR S TO VISIBILITY
.  
 
WVZ003-271300-  
NORTHERN PANHANDLE OF WEST VIRGINIA  
 
CITY SKY/WX TMP DP RH WIND PRES REMARKS
 
WHEELING PTCLDY 53 50 89 W8 29.98R  

 
 
WVZ009-271300-  
NORTHWEST WEST VIRGINIA  
 
CITY SKY/WX TMP DP RH WIND PRES REMARKS
 
PARKERSBURG CLOUDY 56 55 97 CALM 30.02S FOG  

 
 
WVZ006-271300-  
WESTERN WEST VIRGINIA  
 
CITY SKY/WX TMP DP RH WIND PRES REMARKS
 
HUNTINGTON CLOUDY 52 51 97 CALM 30.01R FOG  

 
 
WVZ015-271300-  
WEST CENTRAL WEST VIRGINIA  
 
CITY SKY/WX TMP DP RH WIND PRES REMARKS
 
CHARLESTON MOCLDY 54 53 97 SE3 30.01S  

 
 
WVZ022-031-271300-  
NORTH CENTRAL WEST VIRGINIA  
 
CITY SKY/WX TMP DP RH WIND PRES REMARKS
 
CLARKSBURG CLOUDY 57 55 93 SW3 30.00S  
MORGANTOWN CLOUDY 57 54 89 S3 30.01R  

 
 
WVZ025-035-042-045-271300-  
SOUTHERN WEST VIRGINIA  
 
CITY SKY/WX TMP DP RH WIND PRES REMARKS
 
BECKLEY MOCLDY 53 50 89 CALM 30.07R  
LOGAN N/A 57 54 88 CALM 30.03S  
BLUEFIELD NOT AVBL  
LEWISBURG MOCLDY 51 50 99 CALM 30.07R FOG  

 
 
WVZ047-271300-  
NORTHERN MOUNTAINS OF WEST VIRGINIA  
 
CITY SKY/WX TMP DP RH WIND PRES REMARKS
 
ELKINS CLOUDY 54 50 86 CALM 30.04R  

 
 
WVZ052-271300-  
EASTERN PANHANDLE OF WEST VIRGINIA  
 
CITY SKY/WX TMP DP RH WIND PRES REMARKS
 
MARTINSBURG CLOUDY 46 45 96 N5 30.06R FOG  
PETERSBURG CLOUDY 48 47 95 CALM 30.06R  

 
 
 
CLICK HERE TO GO TO PREVIOUS BULLETINS.

The Nexlab WV Page
The Nexlab OH Page
The Nexlab KY Page
The Nexlab VA Page Main Text Page